K3RUP-1 Weather Reports


Display with metric or nautical units.
time (UTC)temp
F
wind
direction
speed
MPH
gust
MPH
rain 1hr
in
rain 24hr
in
rain mn
in
humidity
%
barometer
mb
20260504070143 49 141 0.0 0.0 0.00 0.00 0.00 78 1015.1
20260504060103 47 149 0.0 0.0 0.00 0.00 0.00 77 1015.3
20260504050532 45 153 0.0 0.0 0.00 0.00 0.00 78 1015.2
20260504045525 46 151 0.0 0.0 0.00 0.00 0.00 77 1015.2
20260504045021 45 151 0.0 0.0 0.00 0.00 0.00 76 1015.1
20260504044518 45 151 0.0 0.0 0.00 0.00 0.00 76 1015.3
20260504044015 45 151 0.0 0.0 0.00 0.00 0.00 75 1015.2
20260504043512 46 149 0.0 0.0 0.00 0.00 0.00 76 1015.1
20260504043010 46 150 0.0 0.0 0.00 0.00 0.00 76 1015.1
20260504042506 45 151 0.0 0.0 0.00 0.00 0.00 76 1015.3
20260504042003 45 147 0.0 0.0 0.00 0.00 0.00 77 1015.1
20260504041459 45 143 0.0 0.0 0.00 0.00 0.00 77 1015.2
20260504040955 45 143 0.0 0.0 0.00 0.00 0.00 77 1015.2
20260504040453 45 143 0.0 0.0 0.00 0.00 0.00 78 1015.3
20260504035949 45 149 0.0 0.0 0.00 0.00 0.00 78 1015.0
20260504035447 44 153 0.0 0.0 0.00 0.00 0.00 78 1014.9
20260504034943 44 152 0.0 0.0 0.00 0.00 0.00 78 1015.0
20260504034440 44 152 0.0 0.0 0.00 0.00 0.00 78 1014.9
20260504033937 44 148 0.0 0.0 0.00 0.00 0.00 78 1015.1
20260504033435 44 153 0.0 0.0 0.00 0.00 0.00 79 1014.9
20260504032932 44 153 0.0 0.0 0.00 0.00 0.00 79 1014.7
20260504032429 44 151 0.0 0.0 0.00 0.00 0.00 78 1014.8
20260504031926 45 150 0.0 0.0 0.00 0.00 0.00 79 1014.6
20260504031422 45 150 0.0 0.0 0.00 0.00 0.00 78 1014.8
20260504030919 45 150 0.0 0.0 0.00 0.00 0.00 78 1014.6
20260504030416 45 150 0.0 0.0 0.00 0.00 0.00 78 1014.6
20260504025912 45 150 0.0 0.0 0.00 0.00 0.00 77 1014.7
20260504025409 45 150 0.0 0.0 0.00 0.00 0.00 76 1014.7
20260504024906 45 149 0.0 0.0 0.00 0.00 0.00 77 1014.6
20260504024403 46 149 0.0 0.0 0.00 0.00 0.00 76 1014.6
20260504023900 46 150 0.0 0.0 0.00 0.00 0.00 76 1014.6
20260504023356 46 149 0.0 0.0 0.00 0.00 0.00 75 1014.7
20260504022852 46 150 0.0 0.0 0.00 0.00 0.00 75 1014.5
20260504022349 46 150 0.0 0.0 0.00 0.00 0.00 74 1014.6
20260504021845 46 150 0.0 0.0 0.00 0.00 0.00 74 1014.6
20260504021343 46 149 0.0 0.0 0.00 0.00 0.00 73 1014.6
20260504020840 47 149 0.0 0.0 0.00 0.00 0.00 73 1014.7
20260504020337 47 149 0.0 0.0 0.00 0.00 0.00 73 1014.5
20260504015833 47 150 0.0 0.0 0.00 0.00 0.00 73 1014.4
20260504015329 47 149 0.0 0.0 0.00 0.00 0.00 71 1014.4
20260504014825 47 149 0.0 0.0 0.00 0.00 0.00 70 1014.4
20260504014321 47 149 0.0 0.0 0.00 0.00 0.00 70 1014.6
20260504013819 48 148 0.0 0.0 0.00 0.00 0.00 70 1014.3
20260504013317 48 148 0.0 0.0 0.00 0.00 0.00 70 1014.4
20260504012813 48 148 0.0 0.0 0.00 0.00 0.00 69 1014.6
20260504012311 48 148 0.0 0.0 0.00 0.00 0.00 67 1014.3
20260504011808 49 148 0.0 0.0 0.00 0.00 0.00 67 1014.4
20260504011305 49 148 0.0 0.0 0.00 0.00 0.00 66 1014.2
20260504010800 49 148 0.0 0.0 0.00 0.00 0.00 65 1014.1
20260504010256 49 148 0.0 0.0 0.00 0.00 0.00 63 1014.2
20260504005753 50 148 0.0 0.0 0.00 0.00 0.00 63 1014.3
20260504005250 50 147 0.0 0.0 0.00 0.00 0.00 61 1014.3
20260504004748 51 147 0.0 0.0 0.00 0.00 0.00 60 1014.3
20260504004245 51 147 0.0 0.0 0.00 0.00 0.00 61 1014.1
20260504003741 51 146 0.0 0.0 0.00 0.00 0.00 60 1014.1
20260504003238 52 145 0.0 0.0 0.00 0.00 0.00 58 1014.0
20260504002735 52 145 0.0 0.0 0.00 0.00 0.00 58 1014.0
20260504002232 53 146 0.0 0.0 0.00 0.00 0.00 55 1013.8
20260504001730 53 144 0.0 0.0 0.00 0.00 0.00 54 1013.8
20260504001226 54 144 0.0 0.0 0.00 0.00 0.00 55 1013.8
20260504000723 55 144 0.0 0.0 0.00 0.00 0.00 54 1013.7
20260504000220 55 144 0.0 0.0 0.00 0.00 0.00 53 1013.7
20260503235719 56 144 0.0 0.0 0.00 0.00 0.00 51 1013.6
20260503235215 56 144 0.0 0.0 0.00 0.00 0.00 50 1013.6
20260503234713 57 144 0.0 0.0 0.00 0.00 0.00 48 1013.7
20260503234211 57 144 0.0 0.0 0.00 0.00 0.00 48 1013.4
20260503233708 58 144 0.0 0.0 0.00 0.00 0.00 51 1013.5
20260503233203 59 144 0.0 0.0 0.00 0.00 0.00 47 1013.3
20260503232700 59 144 0.0 0.0 0.00 0.00 0.00 49 1013.4
20260503232157 60 138 0.0 0.0 0.00 0.00 0.00 45 1013.3
20260503231656 60 117 0.0 0.0 0.00 0.00 0.00 39 1013.3
20260503231151 60 129 0.0 0.0 0.00 0.00 0.00 40 1013.2
20260503230648 60 150 0.0 0.0 0.00 0.00 0.00 41 1013.4
20260503230145 61 136 0.0 0.0 0.00 0.00 0.00 42 1013.3
20260503225643 61 179 0.0 0.0 0.00 0.00 0.00 38 1013.2
20260503225143 61 154 0.0 0.0 0.00 0.00 0.00 34 1013.2
20260503224640 61 85 0.0 0.0 0.00 0.00 0.00 35 1013.3
20260503224138 61 107 0.0 0.0 0.00 0.00 0.00 34 1013.5
20260503223636 62 189 0.0 0.0 0.00 0.00 0.00 34 1013.6
20260503223132 62 135 0.0 0.0 0.00 0.00 0.00 35 1013.2
20260503222629 62 151 0.0 0.0 0.00 0.00 0.00 32 1013.2
20260503222127 62 138 1.0 2.0 0.00 0.00 0.00 35 1013.2
20260503221625 62 188 0.0 0.0 0.00 0.00 0.00 34 1013.2
20260503221122 62 129 0.0 1.0 0.00 0.00 0.00 31 1013.5
20260503220619 62 142 0.0 0.0 0.00 0.00 0.00 31 1013.4
20260503220115 63 148 0.0 0.0 0.00 0.00 0.00 32 1013.4
20260503215613 63 225 0.0 0.0 0.00 0.00 0.00 34 1013.6
20260503215109 63 166 0.0 0.0 0.00 0.00 0.00 31 1013.2
20260503214608 63 144 0.0 0.0 0.00 0.00 0.00 33 1013.4
20260503214103 63 206 0.0 0.0 0.00 0.00 0.00 32 1013.2
20260503213603 62 219 0.0 1.0 0.00 0.00 0.00 31 1013.3
20260503213058 63 199 0.0 0.0 0.00 0.00 0.00 33 1013.3
20260503212556 63 252 1.0 1.0 0.00 0.00 0.00 33 1013.4
20260503212054 63 265 0.0 1.0 0.00 0.00 0.00 31 1013.4
20260503211551 63 274 0.0 0.0 0.00 0.00 0.00 31 1013.0
20260503211046 63 145 0.0 0.0 0.00 0.00 0.00 36 1013.4
20260503210543 64 239 1.0 2.0 0.00 0.00 0.00 33 1013.4
20260503210038 64 306 0.0 0.0 0.00 0.00 0.00 34 1013.5
20260503205535 64 275 0.0 0.0 0.00 0.00 0.00 33 1013.3
20260503205032 65 306 1.0 2.0 0.00 0.00 0.00 33 1013.3
20260503204529 64 149 0.0 0.0 0.00 0.00 0.00 33 1013.3
20260503204026 64 328 0.0 0.0 0.00 0.00 0.00 32 1013.6
20260503203523 64 156 0.0 1.0 0.00 0.00 0.00 32 1013.4
20260503203020 63 147 0.0 0.0 0.00 0.00 0.00 32 1013.5
20260503202518 63 323 0.0 0.0 0.00 0.00 0.00 32 1013.6
20260503202016 63 146 0.0 0.0 0.00 0.00 0.00 34 1013.6
20260503201514 63 341 0.0 1.0 0.00 0.00 0.00 35 1013.7
20260503201011 62 277 0.0 1.0 0.00 0.00 0.00 34 1014.0
20260503200507 62 249 0.0 0.0 0.00 0.00 0.00 33 1013.8
20260503200004 63 205 0.0 0.0 0.00 0.00 0.00 35 1014.0
20260503195501 63 201 0.0 0.0 0.00 0.00 0.00 34 1014.0
20260503194957 62 145 0.0 0.0 0.00 0.00 0.00 35 1014.1
20260503194455 62 345 0.0 0.0 0.00 0.00 0.00 33 1014.1
20260503193949 63 245 3.0 5.0 0.00 0.00 0.00 32 1014.2
20260503193446 63 273 0.0 0.0 0.00 0.00 0.00 35 1014.2
20260503192941 62 227 1.0 1.0 0.00 0.00 0.00 35 1014.0
20260503192438 63 223 0.0 0.0 0.00 0.00 0.00 35 1014.5
20260503191933 62 218 0.0 0.0 0.00 0.00 0.00 35 1014.4
20260503191431 61 202 0.0 0.0 0.00 0.00 0.00 34 1014.4
20260503190927 61 301 0.0 1.0 0.00 0.00 0.00 36 1014.6
20260503190425 61 133 0.0 0.0 0.00 0.00 0.00 34 1014.7
20260503185922 61 120 1.0 2.0 0.00 0.00 0.00 37 1014.7
20260503185418 62 236 3.0 5.0 0.00 0.00 0.00 34 1014.6
20260503184917 62 191 0.0 0.0 0.00 0.00 0.00 36 1014.5
20260503184414 63 166 0.0 0.0 0.00 0.00 0.00 34 1014.8
20260503183910 62 317 0.0 0.0 0.00 0.00 0.00 37 1014.8
20260503183407 63 131 0.0 0.0 0.00 0.00 0.00 35 1015.0
20260503182904 60 130 0.0 2.0 0.00 0.00 0.00 37 1015.1
20260503182403 60 170 0.0 0.0 0.00 0.00 0.00 38 1014.9
20260503181900 60 146 0.0 1.0 0.00 0.00 0.00 34 1014.8
20260503181357 60 113 0.0 0.0 0.00 0.00 0.00 36 1015.1
20260503180853 60 295 1.0 1.0 0.00 0.00 0.00 37 1015.0
20260503180351 61 156 0.0 0.0 0.00 0.00 0.00 36 1014.9
20260503175847 60 177 0.0 0.0 0.00 0.00 0.00 39 1015.0
20260503175346 60 251 1.0 2.0 0.00 0.00 0.00 36 1015.2
20260503174841 60 131 1.0 2.0 0.00 0.00 0.00 37 1015.2
20260503174339 59 284 0.0 1.0 0.00 0.00 0.00 38 1015.1
20260503173834 60 212 0.0 0.0 0.00 0.00 0.00 36 1015.3
20260503173331 60 84 0.0 0.0 0.00 0.00 0.00 35 1015.2
20260503172828 59 217 0.0 0.0 0.00 0.00 0.00 35 1015.4
20260503172326 59 152 0.0 0.0 0.00 0.00 0.00 35 1015.2
20260503171821 59 160 0.0 1.0 0.00 0.00 0.00 36 1015.5
20260503171318 58 102 0.0 0.0 0.00 0.00 0.00 40 1015.4
20260503170815 58 278 0.0 2.0 0.00 0.00 0.00 38 1015.3
20260503170312 59 267 2.0 3.0 0.00 0.00 0.00 37 1015.4
20260503150704 54 153 0.0 0.0 0.00 0.00 0.00 41 1016.1
20260503150200 53 55 0.0 0.0 0.00 0.00 0.00 44 1015.9
20260503140125 51 184 1.0 3.0 0.00 0.00 0.00 48 1016.4
20260503131054 48 136 0.0 0.0 0.00 0.00 0.00 56 1016.2
20260503130551 48 262 1.0 1.0 0.00 0.00 0.00 54 1016.2
20260503110442 42 172 0.0 0.0 0.00 0.00 0.00 71 1015.2
20260503090333 41 151 0.0 0.0 0.00 0.00 0.00 80 1013.6
20260503081300 42 151 0.0 0.0 0.00 0.00 0.00 79 1013.4
20260503080756 42 168 0.0 0.0 0.00 0.00 0.00 79 1013.3
20260503080254 42 151 0.0 0.0 0.00 0.00 0.00 79 1013.5